EW7425 Weather Reports


Display with metric or nautical units.
time (UTC)temp
F
wind
direction
speed
MPH
gust
MPH
rain 1hr
in
rain 24hr
in
rain mn
in
humidity
%
barometer
mb
20190523033020 49 336 0.0 1.0 0.00 0.00 0.00 73 1022.1
20190523030019 50 336 0.0 1.0 0.00 0.00 0.00 70 1022.1
20190523023018 51 336 0.0 0.0 0.00 0.00 0.00 67 1021.8
20190523020017 52 336 0.0 0.0 0.00 0.00 0.00 64 1022.0
20190523013016 54 336 0.0 1.0 0.00 0.00 0.00 59 1022.0
20190523010015 55 336 0.0 0.0 0.00 0.00 0.00 56 1021.8
20190523003014 57 336 0.0 0.0 0.00 0.00 0.00 54 1021.9
20190523000014 59 336 0.0 1.0 0.00 0.00 0.00 48 1021.9
20190522233012 61 336 0.0 3.0 0.00 0.00 0.00 44 1021.4
20190522230011 62 336 0.0 8.0 0.00 0.00 0.00 42 1021.2
20190522223010 63 336 0.0 7.0 0.00 0.00 0.00 42 1021.2
20190522220009 63 336 1.0 7.0 0.00 0.00 0.00 42 1021.2
20190522213008 62 336 5.0 12.0 0.00 0.00 0.00 40 1021.3
20190522210008 63 324 4.0 10.0 0.00 0.00 0.00 40 1021.1
20190522203006 62 336 4.0 11.0 0.00 0.00 0.00 40 1020.8
20190522200005 63 341 5.0 11.0 0.00 0.00 0.00 41 1020.5
20190522193004 62 337 5.0 14.0 0.00 0.01 0.00 42 1020.5
20190522190033 60 60 2.0 11.0 0.00 0.01 0.00 45 1020.4
20190522183002 59 340 6.0 16.0 0.00 0.01 0.00 46 1020.7
20190522180017 59 325 0.0 17.0 0.00 0.01 0.00 46 1020.6
20190522173015 58 0 3.0 15.0 0.00 0.01 0.00 47 1020.5
20190522170014 58 36 2.0 15.0 0.00 0.01 0.00 49 1020.6
20190522163013 57 314 1.0 14.0 0.00 0.01 0.00 48 1020.4
20190522160012 57 358 11.0 18.0 0.00 0.01 0.00 49 1020.1
20190522153011 56 359 1.0 19.0 0.00 0.01 0.00 49 1019.7
20190522150009 55 324 1.0 17.0 0.00 0.01 0.00 51 1019.4
20190522143008 54 314 0.0 19.0 0.00 0.01 0.00 53 1019.0
20190522140007 53 354 7.0 17.0 0.00 0.01 0.00 55 1019.0
20190522133006 52 343 6.0 18.0 0.00 0.01 0.00 56 1018.8
20190522130005 51 23 2.0 15.0 0.00 0.01 0.00 58 1018.2
20190522123003 51 317 4.0 16.0 0.00 0.01 0.00 60 1018.0
20190522120032 49 340 7.0 15.0 0.00 0.01 0.00 61 1017.7
20190522113031 48 325 7.0 14.0 0.00 0.01 0.00 66 1017.4
20190522110030 46 314 1.0 13.0 0.00 0.01 0.00 69 1017.0
20190522103029 45 314 7.0 13.0 0.00 0.01 0.00 71 1016.6
20190522100027 44 320 2.0 12.0 0.00 0.01 0.00 72 1016.0
20190522093026 43 306 6.0 10.0 0.00 0.01 0.00 72 1015.4
20190522090025 44 327 1.0 11.0 0.00 0.01 0.00 70 1014.9
20190522083024 44 320 5.0 13.0 0.00 0.01 0.00 69 1014.3
20190522080022 45 326 5.0 17.0 0.00 0.01 0.00 69 1014.0
20190522073021 45 321 8.0 15.0 0.00 0.01 0.00 69 1013.5
20190522070019 44 334 7.0 13.0 0.00 0.01 0.00 69 1013.0
20190522063018 44 325 4.0 13.0 0.00 0.01 0.00 69 1012.6
20190522060017 44 334 6.0 15.0 0.00 0.01 0.00 67 1012.1
20190522053016 45 335 4.0 14.0 0.00 0.01 0.00 65 1011.7
20190522050016 46 325 3.0 14.0 0.00 0.01 0.00 65 1011.5
20190522043014 47 322 2.0 13.0 0.00 0.01 0.00 63 1011.1
20190522040014 48 326 0.0 19.0 0.00 0.01 0.00 61 1010.8